Simultaneous Nadir Overpasses (SNOs) Predictions

Prediction of SNOs between LANDSAT-8 and NPP Satellite Orbit:

Table of predicted SNOs for the next 14.0 days since TLE Epoch: 7/9/2016
Index Date (LANDSAT-8) Time (LANDSAT-8) Lat,Lon (LANDSAT-8) SZA (LANDSAT-8 ) Date (NPP) Time (NPP) Lat,Lon (NPP) SZA (NPP ) Distance(km) Time Diff (sec)
1 07/11/2016 13:52:18 70.42, -31.17 48.40 07/11/2016 13:51:06 70.50, -31.84 48.52 26.44 72
2 07/11/2016 14:41:51 -70.15, 136.06 131.86 07/11/2016 14:41:43 -70.15, 136.04 131.86 0.85 8
3 07/11/2016 15:31:18 70.05, -56.44 48.05 07/11/2016 15:32:27 70.04, -56.48 48.03 1.95 69
4 07/14/2016 06:08:51 70.21, 84.40 48.59 07/14/2016 06:07:54 70.23, 84.37 48.62 2.37 57
5 07/14/2016 06:58:21 -70.10,-108.13 131.51 07/14/2016 06:58:35 -70.08,-108.08 131.54 3.02 14
6 07/14/2016 07:48:00 69.33, 58.46 47.77 07/14/2016 07:49:07 69.33, 60.32 47.69 72.86 67
7 07/16/2016 22:25:22 70.16,-159.80 48.98 07/16/2016 22:24:47 70.17,-159.76 48.99 1.87 35
8 07/16/2016 23:14:52 -70.05, 7.68 131.12 07/16/2016 23:15:29 -70.06, 7.71 131.11 1.88 37
9 07/19/2016 13:52:17 -70.70, 149.23 130.04 07/19/2016 13:51:07 -70.78, 147.73 129.89 55.91 70
10 07/19/2016 14:41:52 70.15, -43.93 49.45 07/19/2016 14:41:41 70.16, -43.97 49.46 1.90 11
11 07/19/2016 15:31:22 -70.05, 123.56 130.64 07/19/2016 15:32:23 -70.05, 123.51 130.65 2.01 61
12 07/22/2016 06:08:56 -70.20, -95.62 129.99 07/22/2016 06:07:50 -70.19, -95.56 129.99 2.57 66
13 07/22/2016 06:58:23 70.09, 71.86
